Location: Recife
(8.0585°S, 34.8848°W)
Time: 21:21:58
(UTC-03:00)

A-11 Canister half - Pass Details

Date: 22 April 2026
Orbit: 1515 x 1684 km, 47.2° (Epoch: 16 May)

Event Time Altitude Azimuth Distance (km) Brightness Sun altitude
Rises 22:42:25 0° 215° (SW) 4,796 - -80.2°
Reaches altitude 10° 22:45:37 10° 212° (SSW) 3,786 - -80.9°
Maximum altitude 22:55:04 64° 131° (SE) 1,678 - -82.8°
Drops below altitude 10° 23:04:12 10° 51° (NE) 3,673 - -84.4°
Sets 23:07:14 0° 48° (NE) 4,645 - -84.8°
